Measurements were made at the meteorological tower in Juelich (50.90 N / 6.40 E) at an altitude of 100 m,
"Instrument: Fast Greenhouse Gas Analyzer (FGGA), Los Gatos Inc.",
Responsible PI: Dr. Marc von Hobe; Forschungszentrum Juelich GmbH; IEK-7; email: m.von.hobe@fz-juelich.de,
NaN or negative numbers are fill values (i.e. no valid measurements were made at that time),
Uncertainties are given as the 1-sigma standard deviation over each 10 minute intervals. In each interval ~600 individual measurements are carried out so that the standard error of the mean is approximately sigma/sqrt(600).,
time_utc,CO2_ppm,stdev_CO2_ppm,CH4_ppm,stdev_CH4_ppm,H2O_ppm,stdev_H2O_ppm
"2015-05-01 00:05:00 000",406.682,0.847984,1.93477,0.00408654,7027.83,126.639
"2015-05-01 00:15:00 000",406.917,0.851441,1.93819,0.00671059,6966.48,121.159
"2015-05-01 00:25:00 000",407.845,1.04878,1.95589,0.00694781,6995.71,134.838
"2015-05-01 00:35:00 000",408.291,0.875984,1.95793,0.00508213,7112.07,151.884
"2015-05-01 00:45:00 000",408.372,0.851698,1.95348,0.00491557,7159.67,165.111
"2015-05-01 00:55:00 000",408.839,0.929367,1.95003,0.00573618,7116.73,172.562
"2015-05-01 01:05:00 000",408.703,1.16960,1.94380,0.00536922,7151.00,190.813
"2015-05-01 01:15:00 000",409.009,1.11137,1.94151,0.00535282,7217.91,204.055
"2015-05-01 01:25:00 000",410.663,0.954078,1.93941,0.00522141,7257.77,197.687
"2015-05-01 01:35:00 000",409.919,1.02494,1.93850,0.00517183,7243.25,219.920
"2015-05-01 01:45:00 000",408.094,1.24363,1.94073,0.00542400,7272.35,228.427
"2015-05-01 01:55:00 000",407.517,0.986263,1.93898,0.00538054,7255.58,205.611
"2015-05-01 02:05:00 000",407.362,0.882379,1.93688,0.00533947,7264.67,212.840
"2015-05-01 02:15:00 000",408.500,0.818467,1.94049,0.00512822,7192.27,215.047
"2015-05-01 02:25:00 000",408.826,0.867542,1.93963,0.00524404,7175.32,203.106
"2015-05-01 02:35:00 000",407.808,0.905756,1.93641,0.00521963,7228.52,209.950
"2015-05-01 02:45:00 000",408.015,0.932132,1.93792,0.00497062,7200.01,212.190
"2015-05-01 02:55:00 000",408.311,0.933178,1.94328,0.00597944,7279.26,185.654
"2015-05-01 03:05:00 000",407.734,0.972899,1.95080,0.00580772,7269.47,205.824
"2015-05-01 03:15:00 000",408.749,0.842055,1.95638,0.00504720,7177.60,203.362
"2015-05-01 03:25:00 000",408.372,0.791819,1.95626,0.00516825,7113.36,206.079
"2015-05-01 03:35:00 000",408.629,0.950127,1.96508,0.00956616,7140.04,207.647
"2015-05-01 03:45:00 000",409.529,0.970838,1.98117,0.0130851,7140.81,217.800
"2015-05-01 03:55:00 000",411.851,1.02445,1.97684,0.00595503,7145.95,207.005
"2015-05-01 04:05:00 000",414.661,1.91064,1.99189,0.00869325,7134.55,221.169
"2015-05-01 04:15:00 000",413.237,1.33686,1.97699,0.00812199,7193.96,207.937
"2015-05-01 04:25:00 000",414.135,0.929473,1.97623,0.00529901,7261.71,207.356
"2015-05-01 04:35:00 000",414.388,1.17192,1.98639,0.00839858,7294.46,210.879
"2015-05-01 04:45:00 000",414.298,1.53032,1.99972,0.00669513,7325.44,218.697
"2015-05-01 04:55:00 000",413.731,1.04259,2.00790,0.00702231,7340.18,224.693
"2015-05-01 05:05:00 000",416.662,1.79753,2.01821,0.00823733,7268.06,232.774
"2015-05-01 05:15:00 000",419.016,1.22740,2.02457,0.00570462,7144.91,222.321
"2015-05-01 05:25:00 000",418.208,1.28639,2.02571,0.00635185,7127.97,222.571
"2015-05-01 05:35:00 000",417.799,1.09465,2.02326,0.00566825,7169.44,215.518
"2015-05-01 05:45:00 000",417.030,1.07766,2.03465,0.00649947,7265.89,227.074
"2015-05-01 05:55:00 000",415.277,1.12010,2.02193,0.00922692,7393.38,207.306
"2015-05-01 06:05:00 000",413.603,1.20821,2.00969,0.00851912,7490.33,183.319
"2015-05-01 06:15:00 000",411.635,1.25433,1.99190,0.00997038,7509.59,167.500
"2015-05-01 06:25:00 000",410.917,1.39833,1.96661,0.0122863,7676.52,162.360
"2015-05-01 06:35:00 000",409.124,1.77120,1.95555,0.0139833,7864.58,135.438
"2015-05-01 06:45:00 000",410.747,2.39224,1.97192,0.0198798,8038.75,122.384
"2015-05-01 06:55:00 000",411.106,1.45290,1.97324,0.0134799,8117.51,97.4863
"2015-05-01 07:05:00 000",410.512,1.64571,1.96507,0.0135333,8132.32,89.3716
"2015-05-01 07:15:00 000",409.085,0.932935,1.95382,0.00827899,8203.32,88.5526
"2015-05-01 07:25:00 000",409.891,1.75983,1.96480,0.0197499,8279.95,94.3657
"2015-05-01 07:35:00 000",406.708,1.35575,1.94030,0.0112449,8269.80,88.7232
"2015-05-01 07:45:00 000",405.679,0.782086,1.93179,0.00537902,8299.54,105.498
"2015-05-01 07:55:00 000",407.417,2.76572,1.92163,0.00389076,8264.64,129.211
"2015-05-01 08:05:00 000",409.573,2.22647,1.92406,0.00401108,7997.96,103.465
"2015-05-01 08:15:00 000",410.304,3.24728,1.92374,0.00390829,7911.57,116.398
"2015-05-01 08:25:00 000",410.904,2.14286,1.92821,0.00421370,7581.97,111.214
"2015-05-01 08:35:00 000",414.028,1.15627,1.94023,0.00750602,7326.08,90.6854
"2015-05-01 08:45:00 000",412.655,1.00302,1.95993,0.00545325,7320.60,99.0794
"2015-05-01 08:55:00 000",413.674,0.844550,1.97780,0.00585058,7438.76,131.096
"2015-05-01 09:05:00 000",414.923,0.854677,1.97654,0.00700533,7839.30,182.991
"2015-05-01 09:15:00 000",413.981,0.927893,1.97649,0.00570016,7423.81,87.3891
"2015-05-01 09:25:00 000",415.975,2.74692,1.98204,0.00523945,7807.13,188.890
"2015-05-01 09:35:00 000",424.074,1.62006,1.98125,0.00509506,7861.40,84.0400
"2015-05-01 09:45:00 000",425.908,0.929363,1.97455,0.00428686,7867.04,102.845
"2015-05-01 09:55:00 000",425.035,0.862880,1.96982,0.00428081,7723.19,92.4979
"2015-05-01 10:05:00 000",426.700,1.06375,1.96821,0.00395759,7665.01,96.7311
"2015-05-01 10:15:00 000",424.378,1.06057,1.96591,0.00391246,7900.51,149.105
"2015-05-01 10:25:00 000",423.892,0.930545,1.96991,0.00361620,7809.58,105.373
"2015-05-01 10:35:00 000",424.758,1.09657,1.97725,0.00399452,7786.05,196.765
"2015-05-01 10:45:00 000",424.236,1.01490,1.97185,0.00427085,7474.84,97.4440
"2015-05-01 10:55:00 000",422.641,1.47685,1.97343,0.00418765,7481.20,89.6176
"2015-05-01 11:05:00 000",418.966,1.80729,1.96476,0.00633557,7588.89,170.810
"2015-05-01 11:15:00 000",417.349,1.06141,1.96455,0.00426204,7674.29,98.4406
"2015-05-01 11:25:00 000",415.409,0.950313,1.96397,0.00390681,7610.56,216.454
"2015-05-01 11:35:00 000",414.870,1.47214,1.96490,0.00406760,7841.77,121.482
"2015-05-01 11:45:00 000",410.522,1.74890,1.95608,0.00846873,7360.54,166.091
"2015-05-01 11:55:00 000",410.859,1.56283,1.95469,0.00459803,7180.56,104.540
"2015-05-01 12:05:00 000",411.867,1.19880,1.94717,0.00493359,7093.45,87.3124
"2015-05-01 12:15:00 000",410.696,1.17593,1.94434,0.00483902,7220.78,93.7953
"2015-05-01 12:25:00 000",409.588,0.898924,1.94358,0.00561906,7072.88,121.346
"2015-05-01 12:35:00 000",409.194,0.850437,1.94088,0.00444568,6972.40,110.162
"2015-05-01 12:45:00 000",408.184,0.912187,1.93518,0.00425517,7345.44,139.350
"2015-05-01 12:55:00 000",407.994,0.970089,1.93284,0.00421170,7088.49,312.285
"2015-05-01 13:05:00 000",409.483,1.24104,1.93733,0.00453846,6627.79,90.4698
"2015-05-01 13:15:00 000",410.510,0.899977,1.93636,0.00432282,6736.45,87.3492
"2015-05-01 13:25:00 000",409.393,1.04641,1.93245,0.00431492,6700.15,118.964
"2015-05-01 13:35:00 000",412.293,2.52565,1.93014,0.00424713,6819.26,285.809
"2015-05-01 13:45:00 000",414.680,1.07136,1.92896,0.00406294,6422.07,93.7278
"2015-05-01 13:55:00 000",416.923,3.09112,1.93051,0.00503334,6464.75,109.662
"2015-05-01 14:05:00 000",422.145,1.65621,1.93464,0.00404091,6635.60,105.469
"2015-05-01 14:15:00 000",422.424,1.20381,1.93496,0.00421514,6413.65,108.712
"2015-05-01 14:25:00 000",421.307,0.885980,1.93524,0.00428226,6341.70,104.043
"2015-05-01 14:35:00 000",420.257,1.02963,1.93480,0.00395763,6347.11,89.1614
"2015-05-01 14:45:00 000",420.795,2.06557,1.93377,0.00390228,6390.90,110.989
"2015-05-01 14:55:00 000",420.416,0.911252,1.93257,0.00384092,6443.00,121.203
"2015-05-01 15:05:00 000",421.795,1.05974,1.93501,0.00410945,5870.52,135.579
"2015-05-01 15:15:00 000",421.815,1.54866,1.93675,0.00390911,5931.58,92.7625
"2015-05-01 15:25:00 000",423.210,1.09244,1.93549,0.00398341,5903.22,123.404
"2015-05-01 15:35:00 000",420.480,1.41391,1.93463,0.00420573,6079.06,106.526
"2015-05-01 15:45:00 000",418.197,1.56706,1.93184,0.00581555,6097.42,138.937
"2015-05-01 15:55:00 000",419.348,0.909851,1.93255,0.00455554,5780.27,100.834
"2015-05-01 16:05:00 000",418.149,1.16546,1.93374,0.00417953,5681.28,116.828
"2015-05-01 16:15:00 000",420.386,2.99849,1.93093,0.00445077,5517.13,115.306
"2015-05-01 16:25:00 000",435.216,3.64086,1.92684,0.00437771,5423.50,99.1376
"2015-05-01 16:35:00 000",436.343,1.09235,1.92594,0.00421277,5464.88,119.797
"2015-05-01 16:45:00 000",434.278,2.47379,1.92785,0.00411106,5303.46,106.359
"2015-05-01 16:55:00 000",431.729,1.10243,1.92639,0.00399435,5410.50,98.9075
"2015-05-01 17:05:00 000",428.531,1.09850,1.92598,0.00404186,5257.83,109.912
"2015-05-01 17:15:00 000",423.836,2.53999,1.92547,0.00418123,5085.77,99.7641
"2015-05-01 17:25:00 000",420.120,1.29942,1.92718,0.00416425,5110.38,94.9760
"2015-05-01 17:35:00 000",416.261,2.92059,1.92687,0.00421998,5067.11,93.8057
"2015-05-01 17:45:00 000",409.445,1.28430,1.92790,0.00392319,5249.99,110.400
"2015-05-01 17:55:00 000",407.415,1.06853,1.92831,0.00385149,5410.29,102.936
"2015-05-01 18:05:00 000",407.242,0.938892,1.92794,0.00413948,5552.45,87.1140
"2015-05-01 18:15:00 000",409.433,0.971045,1.93368,0.00405476,5450.37,98.4500
"2015-05-01 18:25:00 000",407.342,2.58132,1.93777,0.00380680,5390.04,82.6781
"2015-05-01 18:35:00 000",404.383,0.954385,1.93730,0.00399906,5446.08,94.2934
"2015-05-01 18:45:00 000",403.180,0.914705,1.94267,0.00365069,5515.24,80.0288
"2015-05-01 18:55:00 000",400.651,0.926466,1.93185,0.00460766,5582.50,82.4281
"2015-05-01 19:05:00 000",400.652,0.824318,1.93065,0.00384612,5617.56,80.9023
"2015-05-01 19:15:00 000",401.168,0.795929,1.92933,0.00380825,5561.57,78.6494
"2015-05-01 19:25:00 000",401.302,0.788431,1.92921,0.00382207,5511.30,82.3640
"2015-05-01 19:35:00 000",401.747,0.894283,1.93044,0.00370007,5449.54,88.7748
"2015-05-01 19:45:00 000",402.660,0.859383,1.93141,0.00386381,5361.34,88.4274
"2015-05-01 19:55:00 000",402.153,0.925273,1.93222,0.00369479,5280.41,82.7134
"2015-05-01 20:05:00 000",401.869,1.10400,1.93318,0.00382423,5298.48,90.6387
"2015-05-01 20:15:00 000",401.958,1.02519,1.93161,0.00370273,5395.38,78.7988
"2015-05-01 20:25:00 000",400.719,0.901181,1.93217,0.00386965,5429.32,82.7443
"2015-05-01 20:35:00 000",401.327,1.05443,1.93672,0.00393728,5442.79,80.2549
"2015-05-01 20:45:00 000",401.486,0.842116,1.94095,0.00383021,5454.35,77.6306
"2015-05-01 20:55:00 000",400.892,0.848137,1.94044,0.00417385,5398.90,88.8005
"2015-05-01 21:05:00 000",400.970,0.824196,1.93940,0.00349496,5361.89,82.8437
"2015-05-01 21:15:00 000",400.869,0.795748,1.94095,0.00368654,5313.83,84.3365
"2015-05-01 21:25:00 000",401.554,0.781305,1.94436,0.00396290,5288.95,78.5000
"2015-05-01 21:35:00 000",402.270,0.788624,1.94836,0.00401309,5290.48,80.5750
"2015-05-01 21:45:00 000",403.239,0.857474,1.94542,0.00367665,5314.81,79.7986
"2015-05-01 21:55:00 000",404.315,0.905214,1.94408,0.00333978,5280.94,80.5906
"2015-05-01 22:05:00 000",405.646,1.04188,1.94918,0.00542082,5331.35,95.7837
"2015-05-01 22:15:00 000",405.193,0.959408,1.95179,0.00379686,5423.80,80.5630
"2015-05-01 22:25:00 000",405.666,0.942052,1.95464,0.00518047,5437.68,89.3371
"2015-05-01 22:35:00 000",406.807,0.865201,1.96792,0.00687682,5459.78,80.6506
"2015-05-01 22:45:00 000",408.224,0.926804,1.98114,0.0103510,5512.45,81.4903
"2015-05-01 22:55:00 000",408.824,0.908571,1.98799,0.00944279,5534.58,79.8870
"2015-05-01 23:05:00 000",408.911,1.16106,1.97239,0.00388824,5474.71,82.2445
"2015-05-01 23:15:00 000",410.924,0.929837,1.98215,0.00742815,5597.02,107.637
"2015-05-01 23:25:00 000",411.691,0.769287,1.99270,0.00387150,5724.26,85.2838
"2015-05-01 23:35:00 000",411.125,0.797695,1.99421,0.00385023,5740.11,83.0869
"2015-05-01 23:45:00 000",411.872,0.764482,1.99685,0.00372253,5762.42,83.1708
"2015-05-01 23:55:00 000",411.910,0.815185,1.99835,0.00391790,5820.67,81.8324
"2015-05-02 00:05:00 000",412.183,0.885647,2.00723,0.00528767,5869.06,81.1462
"2015-05-02 00:15:00 000",411.991,0.854042,2.01544,0.00528658,5928.43,85.6026
"2015-05-02 00:25:00 000",411.611,0.949226,2.02319,0.00542183,5970.66,81.1233
"2015-05-02 00:35:00 000",412.092,0.864644,2.02598,0.00463825,5944.51,82.5037
"2015-05-02 00:45:00 000",412.025,0.873288,2.03691,0.00500113,5969.69,81.0486
"2015-05-02 00:55:00 000",412.876,0.926335,2.05629,0.0154291,6009.04,91.3090
"2015-05-02 01:05:00 000",413.364,1.07541,2.08126,0.00667137,6103.84,89.4232
"2015-05-02 01:15:00 000",414.786,0.978647,2.07363,0.00494983,6036.36,85.6008
"2015-05-02 01:25:00 000",415.752,0.905875,2.07925,0.00477712,6065.02,93.6514
"2015-05-02 01:35:00 000",415.737,0.990935,2.08396,0.00408324,6093.24,88.0357
"2015-05-02 01:45:00 000",417.298,1.52718,2.08100,0.00433455,6081.06,89.7840
"2015-05-02 01:55:00 000",419.774,0.832350,2.08100,0.00400038,6083.13,95.2199
"2015-05-02 02:05:00 000",419.782,0.847498,2.08170,0.00411996,6108.64,90.2140
"2015-05-02 02:15:00 000",419.781,0.832437,2.08118,0.00451661,6134.89,91.9229
"2015-05-02 02:25:00 000",420.906,1.10934,2.06880,0.00525197,6183.61,83.4249
"2015-05-02 02:35:00 000",422.674,0.798587,2.06287,0.00398662,6229.61,83.1838
"2015-05-02 02:45:00 000",422.770,0.827602,2.06408,0.00391351,6132.62,90.0016
"2015-05-02 02:55:00 000",422.561,0.876269,2.06291,0.00399420,6091.35,84.9841
"2015-05-02 03:05:00 000",423.098,0.878159,2.06678,0.00414759,6003.30,86.7208
"2015-05-02 03:15:00 000",422.622,1.21984,2.06732,0.00486798,5909.83,87.6238
"2015-05-02 03:25:00 000",424.335,0.846549,2.07389,0.00413330,5959.15,106.281
"2015-05-02 03:35:00 000",423.800,0.866752,2.07720,0.00429848,6173.69,91.9430
"2015-05-02 03:45:00 000",422.632,0.914833,2.08363,0.00408537,6199.33,83.9289
"2015-05-02 03:55:00 000",422.144,0.902839,2.08716,0.00556501,6240.02,83.5575
"2015-05-02 04:05:00 000",422.047,0.821508,2.08413,0.00463842,6299.35,93.7533
"2015-05-02 04:15:00 000",421.763,0.881596,2.08443,0.00414730,6330.35,80.5195
"2015-05-02 04:25:00 000",422.217,0.888923,2.08624,0.00497565,6401.40,85.8314
"2015-05-02 04:35:00 000",421.617,0.892220,2.09258,0.00573616,6546.74,89.5778
"2015-05-02 04:45:00 000",422.233,0.855022,2.09787,0.00437604,6682.29,103.934
"2015-05-02 04:55:00 000",422.103,0.812776,2.09828,0.00423208,6763.53,89.7750
"2015-05-02 05:05:00 000",422.871,0.773704,2.09783,0.00458335,6648.40,103.138
"2015-05-02 05:15:00 000",423.540,0.881094,2.09697,0.00605272,6735.61,118.445
"2015-05-02 05:25:00 000",425.107,0.863275,2.10151,0.00422275,6972.05,107.715
"2015-05-02 05:35:00 000",425.279,0.947813,2.10481,0.00450718,7106.93,103.066
"2015-05-02 05:45:00 000",425.056,2.41219,2.10533,0.0149703,7151.96,134.322
"2015-05-02 05:55:00 000",438.151,7.14805,2.19411,0.0438632,6865.79,93.1356
"2015-05-02 06:05:00 000",441.903,1.43173,2.20975,0.00960901,6911.31,101.440
"2015-05-02 06:15:00 000",441.151,1.08211,2.20432,0.00493703,6990.50,111.864
"2015-05-02 06:25:00 000",437.258,3.11833,2.18035,0.0145230,7169.17,127.790
"2015-05-02 06:35:00 000",438.537,1.19022,2.21023,0.0241805,7767.27,210.573
"2015-05-02 06:45:00 000",437.106,1.46403,2.18071,0.0108041,8189.48,147.901
"2015-05-02 06:55:00 000",433.997,2.06051,2.17416,0.0172399,8011.60,246.289
"2015-05-02 07:05:00 000",431.132,3.45084,2.14966,0.0237274,7750.35,121.980
"2015-05-02 07:15:00 000",426.750,1.01916,2.11610,0.00822954,7487.57,171.004
"2015-05-02 07:25:00 000",426.579,1.22563,2.11718,0.0117520,7339.12,106.624
"2015-05-02 07:35:00 000",425.504,1.60452,2.11600,0.00830278,7291.29,116.912
"2015-05-02 07:45:00 000",421.972,1.24775,2.08374,0.0141423,7151.04,162.295
"2015-05-02 07:55:00 000",421.544,1.18279,2.08386,0.0128066,7001.32,129.261
"2015-05-02 08:05:00 000",419.271,2.40716,2.06864,0.0293752,7072.24,101.984
"2015-05-02 08:15:00 000",418.828,0.933841,2.08051,0.00733841,7032.21,136.550
"2015-05-02 08:25:00 000",417.513,1.06811,2.07214,0.00820464,7053.94,104.400
"2015-05-02 08:35:00 000",414.303,1.64895,2.05337,0.0149521,7043.76,118.141
"2015-05-02 08:45:00 000",412.421,2.08327,2.04875,0.0159170,6762.26,140.150
"2015-05-02 08:55:00 000",412.710,1.07916,2.05523,0.00902997,6648.84,132.279
"2015-05-02 09:05:00 000",412.003,1.21302,2.05032,0.00932617,6826.02,113.089
"2015-05-02 09:15:00 000",411.179,1.23312,2.04988,0.0139935,6630.99,174.857
"2015-05-02 09:25:00 000",410.366,1.16212,2.05402,0.0119259,6746.44,175.395
"2015-05-02 09:35:00 000",406.713,2.11508,2.01061,0.0313895,6509.60,305.971
"2015-05-02 09:45:00 000",403.663,1.35288,1.97367,0.0141080,5852.68,192.689
"2015-05-02 09:55:00 000",402.727,1.12992,1.96564,0.00901828,5576.07,83.0526
"2015-05-02 10:05:00 000",402.570,0.992079,1.97217,0.00959620,5582.82,88.6055
"2015-05-02 10:15:00 000",402.275,0.984550,1.97018,0.00510276,5548.27,110.361
"2015-05-02 10:25:00 000",403.031,1.08594,1.97883,0.00603332,5589.58,126.898
"2015-05-02 10:35:00 000",402.666,1.07294,1.98036,0.00522002,5825.09,152.746
"2015-05-02 10:45:00 000",403.915,1.21080,1.98728,0.00752551,5843.38,184.328
"2015-05-02 10:55:00 000",402.640,1.07726,1.98039,0.00628458,5947.87,135.930
"2015-05-02 11:05:00 000",402.051,1.07968,1.97178,0.00497983,5762.28,139.757
"2015-05-02 11:15:00 000",401.397,0.977834,1.96401,0.00533393,5416.75,257.635
"2015-05-02 11:25:00 000",401.367,1.02342,1.95893,0.00531533,5280.46,94.9340
"2015-05-02 11:35:00 000",400.626,1.06202,1.96448,0.00543468,5387.86,95.9383
"2015-05-02 11:45:00 000",400.660,0.992494,1.95383,0.00526232,5339.21,125.447
"2015-05-02 11:55:00 000",400.003,0.983256,1.94853,0.00446389,5309.01,101.342
"2015-05-02 12:05:00 000",399.754,0.894855,1.94825,0.00423244,5371.58,77.2858
"2015-05-02 12:15:00 000",400.382,0.884875,1.94945,0.00459859,5216.62,94.3943
"2015-05-02 12:25:00 000",401.095,1.09336,1.95219,0.00395121,5456.77,116.360
"2015-05-02 12:35:00 000",403.865,1.44607,1.95351,0.00397106,5443.61,102.213
"2015-05-02 12:45:00 000",404.784,0.958558,1.95320,0.00410410,5491.92,90.8887
"2015-05-02 12:55:00 000",404.251,0.991220,1.95483,0.00422149,5667.73,89.8112
"2015-05-02 13:05:00 000",402.790,1.00491,1.95451,0.00435085,5684.82,100.063
"2015-05-02 13:15:00 000",402.541,0.903257,1.95418,0.00404713,5819.35,122.459
"2015-05-02 13:25:00 000",402.473,1.04555,1.95611,0.00437337,5603.55,75.1086
"2015-05-02 13:35:00 000",401.204,1.01489,1.95669,0.00418017,5713.30,90.4177
"2015-05-02 13:45:00 000",399.783,0.997677,1.95636,0.00469614,5876.68,114.553
"2015-05-02 13:55:00 000",399.232,0.925655,1.95407,0.00432868,5900.29,85.6992
"2015-05-02 14:05:00 000",399.070,0.942234,1.95745,0.00476633,5818.24,99.3804
"2015-05-02 14:15:00 000",398.890,0.929755,1.95447,0.00482311,5767.60,75.8020
"2015-05-02 14:25:00 000",398.545,0.898206,1.95115,0.00451151,5846.44,94.9477
"2015-05-02 14:35:00 000",398.160,0.968628,1.94949,0.00433921,6019.51,102.520
"2015-05-02 14:45:00 000",398.506,0.936059,1.95129,0.00434451,5995.91,115.608
"2015-05-02 14:55:00 000",400.696,1.20640,1.95337,0.00449240,5931.15,83.5119
"2015-05-02 15:05:00 000",402.600,1.38289,1.95446,0.00476699,6032.05,92.1686
"2015-05-02 15:15:00 000",403.110,1.23430,1.95166,0.00457905,6078.03,100.279
"2015-05-02 15:25:00 000",401.586,1.13492,1.94999,0.00468209,6172.82,87.8969
"2015-05-02 15:35:00 000",401.390,1.05407,1.94866,0.00436855,6159.58,112.401
"2015-05-02 15:45:00 000",402.936,1.32786,1.94985,0.00436694,6099.53,111.799
"2015-05-02 15:55:00 000",403.441,0.874438,1.94930,0.00408317,6176.28,122.918
"2015-05-02 16:05:00 000",402.581,1.08565,1.94795,0.00423197,6200.73,94.0047
"2015-05-02 16:15:00 000",399.980,1.08608,1.94706,0.00408545,6159.08,96.9439
"2015-05-02 16:25:00 000",401.616,1.00846,1.94750,0.00433354,6081.07,74.7717
"2015-05-02 16:35:00 000",403.021,0.931416,1.94917,0.00438684,6152.22,75.1007
"2015-05-02 16:45:00 000",403.689,0.861959,1.94918,0.00398266,6179.45,68.4002
"2015-05-02 16:55:00 000",404.455,0.970511,1.94977,0.00406396,6237.53,66.9243
"2015-05-02 17:05:00 000",404.991,0.857215,1.95190,0.00384876,6239.91,72.2880
"2015-05-02 17:15:00 000",405.944,0.995414,1.95427,0.00386476,6223.65,74.6218
"2015-05-02 17:25:00 000",406.464,0.842759,1.95451,0.00382706,6264.02,74.3728
"2015-05-02 17:35:00 000",405.769,0.858232,1.95342,0.00384923,6248.05,74.6715
"2015-05-02 17:45:00 000",405.708,0.857441,1.95276,0.00416509,6235.90,68.7935
"2015-05-02 17:55:00 000",405.633,0.942050,1.95241,0.00395823,6157.46,78.2007
"2015-05-02 18:05:00 000",405.599,0.864949,1.95332,0.00390246,6082.82,74.0465
"2015-05-02 18:15:00 000",405.041,0.964523,1.95008,0.00392965,6084.13,70.0517
"2015-05-02 18:25:00 000",404.254,0.922074,1.94930,0.00402724,6107.08,72.4910
"2015-05-02 18:35:00 000",404.144,0.929031,1.94863,0.00391347,6081.35,72.3874
"2015-05-02 18:45:00 000",404.106,1.01898,1.94717,0.00412271,6170.53,75.2766
"2015-05-02 18:55:00 000",403.319,0.907905,1.94763,0.00435340,6192.76,68.8599
"2015-05-02 19:05:00 000",402.744,0.912392,1.94844,0.00389688,6244.62,71.6706
"2015-05-02 19:15:00 000",402.212,1.11313,1.94922,0.00384557,6324.90,88.7839
"2015-05-02 19:25:00 000",402.012,1.00760,1.95318,0.00408922,6394.35,74.2207
"2015-05-02 19:35:00 000",403.053,0.985772,1.95551,0.00400292,6469.73,71.5268
"2015-05-02 19:45:00 000",403.081,0.906505,1.95900,0.00416463,6551.27,72.3635
"2015-05-02 19:55:00 000",403.494,1.13265,1.96254,0.00562663,6625.20,66.9607
"2015-05-02 20:05:00 000",404.291,1.21792,1.97276,0.00687356,6717.65,85.0555
"2015-05-02 20:15:00 000",405.539,0.991531,1.96660,0.00475761,6872.96,90.6036
"2015-05-02 20:25:00 000",408.136,1.58399,1.98392,0.0219551,7081.50,87.9806
"2015-05-02 20:35:00 000",406.757,1.08487,1.97109,0.0120465,7437.87,141.198
"2015-05-02 20:45:00 000",405.423,1.76687,1.96079,0.00694996,7695.49,88.9598
"2015-05-02 20:55:00 000",402.186,3.86404,1.93525,0.0101126,7962.73,121.779
"2015-05-02 21:05:00 000",397.368,1.68038,1.92827,0.00632243,8201.26,80.4697
"2015-05-02 21:15:00 000",399.910,1.19039,1.93408,0.00662129,8186.63,72.1354
"2015-05-02 21:25:00 000",399.101,1.24977,1.92641,0.00778853,8283.80,95.8334
"2015-05-02 21:35:00 000",399.158,0.964322,1.92657,0.00408788,8309.05,77.1214
"2015-05-02 21:45:00 000",399.271,2.26691,1.92495,0.00409369,8264.16,75.0348
"2015-05-02 21:55:00 000",400.684,1.22618,1.92943,0.00424172,8258.38,73.7308
"2015-05-02 22:05:00 000",403.880,2.25297,1.93669,0.00833550,8213.57,97.4044
"2015-05-02 22:15:00 000",402.767,2.96505,1.93805,0.0107049,8252.40,103.800
"2015-05-02 22:25:00 000",404.104,3.80436,1.93230,0.0101050,8172.48,118.852
"2015-05-02 22:35:00 000",408.323,2.84422,1.95347,0.00747594,8111.67,127.375
"2015-05-02 22:45:00 000",407.539,1.75492,1.96389,0.0106047,8187.04,91.7608
"2015-05-02 22:55:00 000",408.975,1.23866,1.96365,0.0104562,8197.85,74.8504
"2015-05-02 23:05:00 000",407.833,1.95448,1.94963,0.00914480,8222.70,76.7699
"2015-05-02 23:15:00 000",407.900,2.76886,1.95017,0.00923432,8228.99,99.5844
"2015-05-02 23:25:00 000",408.349,2.57381,1.95035,0.00920819,8305.34,97.8781
"2015-05-02 23:35:00 000",408.732,2.79871,1.95563,0.0117305,8323.52,112.941
"2015-05-02 23:45:00 000",407.368,1.86788,1.95306,0.00827222,8451.00,79.7727
"2015-05-02 23:55:00 000",408.235,1.66801,1.95929,0.00794409,8497.08,83.5259
"2015-05-03 00:05:00 000",409.682,1.46886,1.95686,0.00617624,8543.86,82.6167
"2015-05-03 00:15:00 000",408.410,1.54061,1.94891,0.00616158,8601.67,86.7527
"2015-05-03 00:25:00 000",410.809,1.75656,1.95662,0.00588803,8571.73,87.5896
"2015-05-03 00:35:00 000",411.126,1.60978,1.95509,0.00597145,8671.15,94.3535
"2015-05-03 00:45:00 000",408.754,1.50424,1.94384,0.00502826,8809.16,94.2878
"2015-05-03 00:55:00 000",408.816,1.49920,1.94130,0.00462610,8781.00,88.5891
"2015-05-03 01:05:00 000",410.681,2.00587,1.94324,0.00504069,8709.94,111.179
"2015-05-03 01:15:00 000",411.713,1.07759,1.94798,0.00480985,8658.20,88.9998
"2015-05-03 01:25:00 000",411.004,1.25684,1.94764,0.00457314,8754.76,91.4798
"2015-05-03 01:35:00 000",411.030,1.21091,1.94924,0.00499159,8728.86,90.2932
"2015-05-03 01:45:00 000",410.001,1.05997,1.94429,0.00429645,8754.21,87.3716
"2015-05-03 01:55:00 000",410.580,0.907027,1.94894,0.00430035,8738.54,85.3835
"2015-05-03 02:05:00 000",410.591,0.996357,1.94558,0.00528540,8788.25,92.5754